K1PH Weather Reports


time (UTC)temp
C
wind
direction
speed
KPH
gust
KPH
rain 1hr
cm
rain 24hr
cm
rain mn
cm
humidity
%
barometer
mb
20260510194010 20 287 3.2 12.9 0.00 0.00 0.00 54 992.1
20260510193010 20 294 4.8 9.7 0.00 0.00 0.00 57 992.1
20260510192010 20 286 3.2 8.0 0.00 0.00 0.00 59 992.3
20260510191010 20 268 3.2 9.7 0.00 0.00 0.00 58 992.3
20260510190009 19 263 4.8 11.3 0.00 0.00 0.00 60 992.4
20260510185010 20 289 3.2 8.0 0.00 0.00 0.00 59 992.5
20260510184009 21 237 3.2 9.7 0.00 0.00 0.00 58 992.4
20260510183010 20 257 3.2 9.7 0.00 0.00 0.00 59 992.5
20260510182010 20 262 6.4 12.9 0.00 0.00 0.00 59 992.3
20260510181009 20 228 3.2 9.7 0.00 0.00 0.00 61 992.4
20260510175010 19 311 3.2 8.0 0.00 0.00 0.00 65 992.5
20260510174010 18 200 1.6 8.0 0.00 0.00 0.00 72 992.8
20260510173009 18 287 3.2 11.3 0.00 0.00 0.00 74 992.8
20260510172009 17 311 1.6 4.8 0.00 0.00 0.00 83 993.0
20260510171009 17 308 4.8 8.0 0.00 0.00 0.00 73 992.8
20260510170009 18 326 3.2 4.8 0.00 0.00 0.00 73 992.8
20260510165010 18 208 3.2 3.2 0.00 0.00 0.00 73 992.8
20260510163009 18 183 1.6 11.3 0.00 0.00 0.00 70 992.8
20260510162012 18 163 3.2 8.0 0.00 0.00 0.00 73 992.8
20260510161009 17 305 4.8 8.0 0.00 0.00 0.00 69 992.8
20260510160008 17 184 1.6 9.7 0.00 0.00 0.00 75 993.0
20260510155008 17 238 3.2 8.0 0.00 0.00 0.00 78 993.2
20260510154008 17 118 3.2 4.8 0.00 0.00 0.00 76 993.2
20260510153009 16 201 1.6 4.8 0.00 0.00 0.00 81 993.2
20260510152008 16 209 3.2 4.8 0.00 0.00 0.00 81 993.2
20260510151009 15 1 0.0 8.0 0.00 0.00 0.00 84 993.1
20260510145008 13 78 8.0 8.0 0.00 0.00 0.00 90 993.3
20260510144008 13 256 3.2 4.8 0.00 0.00 0.00 88 993.4
20260510142008 13 234 0.0 1.6 0.00 0.00 0.00 92 993.5
20260510141008 12 250 1.6 3.2 0.00 0.00 0.00 91 993.4
20260510135009 11 146 1.6 3.2 0.00 0.00 0.00 94 993.5
20260510134008 11 126 1.6 1.6 0.00 0.00 0.00 94 993.4
20260510133009 9 123 0.0 0.0 0.00 0.00 0.00 97 991.7
20260510131008 9 123 0.0 0.0 0.00 0.00 0.00 97 991.7
20260510130009 9 123 0.0 0.0 0.00 0.00 0.00 97 991.7
20260510124008 9 123 0.0 0.0 0.00 0.00 0.00 97 991.7
20260510123008 9 123 0.0 0.0 0.00 0.00 0.00 97 991.7
20260510122008 9 123 0.0 0.0 0.00 0.00 0.00 97 991.7
20260510121008 9 123 0.0 0.0 0.00 0.00 0.00 97 991.7
20260510120008 9 123 0.0 0.0 0.00 0.00 0.00 97 991.7
20260510115008 9 123 0.0 0.0 0.00 0.00 0.00 97 991.7
20260510114008 9 123 0.0 0.0 0.00 0.00 0.00 97 991.7
20260510113008 9 123 0.0 0.0 0.00 0.00 0.00 97 991.7
20260510112008 9 123 0.0 0.0 0.00 0.00 0.00 97 991.7
20260510111008 9 123 0.0 0.0 0.00 0.00 0.00 97 991.7
20260510110008 9 123 0.0 0.0 0.00 0.00 0.00 97 991.7
20260510105012 9 123 0.0 0.0 0.00 0.00 0.00 97 991.7
20260510104008 9 123 0.0 0.0 0.00 0.00 0.00 97 991.7
20260510103008 9 123 0.0 0.0 0.00 0.00 0.00 97 991.7
20260510102008 9 123 0.0 0.0 0.00 0.00 0.00 97 991.7
20260510101008 9 123 0.0 0.0 0.00 0.00 0.00 97 991.7
20260510100008 9 123 0.0 0.0 0.00 0.00 0.00 97 991.7
20260510095008 9 123 0.0 0.0 0.00 0.00 0.00 97 991.7
20260510093007 9 123 0.0 0.0 0.00 0.00 0.00 97 991.7
20260510091008 9 123 0.0 0.0 0.00 0.00 0.00 97 991.7
20260510090007 9 123 0.0 0.0 0.00 0.00 0.00 97 991.7
20260510085008 9 123 0.0 0.0 0.00 0.00 0.00 97 991.7
20260510084007 9 123 0.0 0.0 0.00 0.00 0.00 97 991.7
20260510082008 9 123 0.0 0.0 0.00 0.00 0.00 97 991.7
20260510074007 9 123 0.0 0.0 0.00 0.00 0.00 97 991.7
20260510072007 9 123 0.0 1.6 0.00 0.00 0.00 97 991.6
20260510070007 9 142 0.0 1.6 0.00 0.00 0.00 97 991.6
20260510065007 9 132 1.6 1.6 0.00 0.00 0.00 97 991.6
20260510063007 9 138 0.0 1.6 0.00 0.00 0.00 97 991.7
20260510062007 9 143 0.0 0.0 0.00 0.00 0.00 97 991.7
20260510061006 9 143 0.0 0.0 0.00 0.00 0.00 97 991.7
20260510055007 9 143 0.0 0.0 0.00 0.00 0.00 97 991.6
20260510053007 9 143 0.0 1.6 0.00 0.00 0.00 97 991.8
20260510052007 9 127 0.0 0.0 0.00 0.00 0.00 97 991.7
20260510051007 9 127 0.0 0.0 0.00 0.00 0.00 97 991.7
20260510050006 9 127 0.0 0.0 0.00 0.00 0.00 97 991.9
20260510045006 9 127 0.0 0.0 0.00 0.00 0.00 97 991.9
20260510044007 9 127 0.0 1.6 0.00 0.00 0.00 97 992.0
20260510043006 9 140 0.0 3.2 0.00 0.00 0.00 97 992.0
20260510041007 9 137 0.0 1.6 0.00 0.00 0.00 97 992.2
20260510040006 9 133 0.0 0.0 0.00 0.00 0.00 97 992.2
20260510035006 9 133 0.0 0.0 0.00 0.00 0.00 97 992.1
20260510034007 9 133 0.0 0.0 0.00 0.00 0.00 97 992.1
20260510033006 9 133 0.0 3.2 0.00 0.00 0.00 97 992.0
20260510032007 9 120 0.0 1.6 0.00 0.00 0.00 97 992.1
20260510031006 9 146 1.6 3.2 0.00 0.00 0.00 97 992.0
20260510025006 9 135 1.6 1.6 0.00 0.00 0.00 97 992.3
20260510024006 9 132 0.0 0.0 0.00 0.00 0.00 97 992.4
20260510023006 8 132 0.0 1.6 0.00 0.00 0.00 97 992.5
20260510022006 8 150 0.0 1.6 0.00 0.00 0.00 96 992.5
20260510021006 8 109 0.0 1.6 0.00 0.00 0.00 96 992.6
20260510020005 8 148 0.0 3.2 0.00 0.00 0.00 96 992.6
20260510015006 8 127 0.0 1.6 0.00 0.00 0.00 96 992.7
20260510014005 8 136 1.6 3.2 0.00 0.00 0.00 96 992.6
20260510013006 8 110 1.6 1.6 0.00 0.00 0.00 96 992.7
20260510012006 8 160 0.0 1.6 0.00 0.00 0.00 96 992.6
20260510011006 8 132 0.0 0.0 0.00 0.00 0.00 96 992.5
20260510010005 8 132 0.0 0.0 0.00 0.00 0.00 96 992.3
20260510005006 8 132 0.0 0.0 0.00 0.00 0.00 96 992.2
20260510004006 8 132 0.0 0.0 0.00 0.00 0.00 96 992.2
20260510003005 8 132 0.0 1.6 0.00 0.00 0.00 96 992.1
20260510002006 8 130 1.6 1.6 0.00 0.00 0.00 96 992.0
20260510001008 8 143 0.0 0.0 0.00 0.00 0.00 96 992.0
20260509234005 9 90 1.6 3.2 0.00 0.00 0.00 96 992.0
20260509233005 9 148 1.6 1.6 0.00 0.00 0.00 96 991.9
20260509232006 9 148 0.0 3.2 0.00 0.00 0.00 96 991.9
20260509230005 9 121 0.0 1.6 0.00 0.00 0.00 96 991.9
20260509225005 9 152 1.6 1.6 0.00 0.00 0.00 96 991.9
20260509223006 9 135 1.6 1.6 0.00 0.00 0.00 96 991.8
20260509222005 9 118 0.0 0.0 0.00 0.00 0.00 96 991.9
20260509221005 9 118 1.6 1.6 0.00 0.00 0.00 96 991.9
20260509220004 8 289 1.6 3.2 0.00 0.00 0.00 96 991.9
20260509215005 8 125 3.2 3.2 0.00 0.00 0.00 96 991.9
20260509213005 8 88 3.2 4.8 0.00 0.00 0.00 96 992.2
20260509212006 8 109 1.6 4.8 0.00 0.00 0.00 96 992.4
20260509211005 8 103 4.8 4.8 0.00 0.00 0.00 96 992.4
20260509210004 8 86 3.2 4.8 0.00 0.00 0.00 96 992.4
20260509205005 8 97 3.2 4.8 0.00 0.00 0.00 96 992.5
20260509204005 8 94 3.2 4.8 0.00 0.00 0.00 96 992.6
20260509203004 8 93 3.2 4.8 0.00 0.00 0.00 95 992.6
20260509202005 8 125 1.6 4.8 0.00 0.00 0.00 95 992.8
20260509201005 8 99 3.2 4.8 0.00 0.00 0.00 95 992.8
20260509200010 8 83 1.6 3.2 0.00 0.00 0.00 94 992.8
20260509195010 8 147 0.0 3.2 0.00 0.00 0.00 94 993.0